| time (UTC) | temp F | wind direction | speed MPH | gust MPH | rain 1hr in | rain 24hr in | rain mn in | humidity % | barometer mb |
| 20260906191538 | 91 | 18 | 0.0 | 3.0 | 0.00 | 0.03 | 0.01 | 71 | 1012.5 |
| 20260906190051 | 90 | 37 | 2.0 | 5.0 | 0.00 | 0.03 | 0.01 | 70 | 1012.4 |
| 20260906184547 | 90 | 79 | 0.0 | 6.0 | 0.00 | 0.03 | 0.01 | 73 | 1012.8 |
| 20260906183042 | 89 | 30 | 3.0 | 6.0 | 0.00 | 0.03 | 0.01 | 72 | 1012.8 |
| 20260906181549 | 91 | 336 | 2.0 | 4.0 | 0.00 | 0.03 | 0.01 | 73 | 1013.0 |
| 20260906180041 | 90 | 348 | 1.0 | 6.0 | 0.00 | 0.03 | 0.01 | 76 | 1013.0 |
| 20260906174544 | 87 | 52 | 2.0 | 6.0 | 0.00 | 0.03 | 0.01 | 78 | 1013.3 |
| 20260906173046 | 88 | 32 | 1.0 | 6.0 | 0.00 | 0.03 | 0.01 | 80 | 1013.4 |
| 20260906171543 | 88 | 13 | 2.0 | 8.0 | 0.00 | 0.03 | 0.01 | 78 | 1013.7 |
| 20260906170039 | 89 | 24 | 2.0 | 6.0 | 0.00 | 0.03 | 0.01 | 77 | 1014.0 |
| 20260906164540 | 88 | 332 | 3.0 | 7.0 | 0.00 | 0.03 | 0.01 | 79 | 1013.9 |
| 20260906163048 | 88 | 330 | 1.0 | 8.0 | 0.00 | 0.03 | 0.01 | 79 | 1014.0 |
| 20260906161548 | 87 | 0 | 1.0 | 9.0 | 0.00 | 0.03 | 0.01 | 81 | 1014.0 |
| 20260906160041 | 87 | 38 | 2.0 | 8.0 | 0.00 | 0.03 | 0.01 | 80 | 1014.1 |
| 20260906154542 | 86 | 0 | 1.0 | 5.0 | 0.00 | 0.03 | 0.01 | 81 | 1014.0 |
| 20260906153042 | 86 | 32 | 2.0 | 6.0 | 0.00 | 0.03 | 0.01 | 84 | 1014.0 |
| 20260906151537 | 84 | 355 | 3.0 | 8.0 | 0.00 | 0.03 | 0.01 | 86 | 1013.9 |
| 20260906150040 | 84 | 39 | 3.0 | 6.0 | 0.00 | 0.03 | 0.01 | 87 | 1013.9 |
| 20260906144540 | 83 | 351 | 2.0 | 4.0 | 0.00 | 0.03 | 0.01 | 90 | 1014.1 |
| 20260906143037 | 81 | 322 | 0.0 | 3.0 | 0.00 | 0.03 | 0.01 | 97 | 1014.0 |
| 20260906141543 | 79 | 349 | 1.0 | 3.0 | 0.00 | 0.03 | 0.01 | 99 | 1014.0 |
| 20260906140049 | 78 | 28 | 3.0 | 5.0 | 0.00 | 0.03 | 0.01 | 99 | 1014.0 |
| 20260906134540 | 78 | 5 | 1.0 | 3.0 | 0.00 | 0.03 | 0.01 | 100 | 1014.0 |
| 20260906133050 | 78 | 287 | 1.0 | 3.0 | 0.00 | 0.03 | 0.01 | 100 | 1013.9 |
| 20260906131545 | 77 | 0 | 1.0 | 3.0 | 0.00 | 0.03 | 0.01 | 100 | 1013.8 |
| 20260906130039 | 76 | 0 | 0.0 | 3.0 | 0.00 | 0.03 | 0.01 | 100 | 1013.6 |
| 20260906124539 | 75 | 346 | 1.0 | 3.0 | 0.00 | 0.03 | 0.01 | 99 | 1013.5 |
| 20260906123049 | 75 | 0 | 0.0 | 0.0 | 0.00 | 0.03 | 0.01 | 99 | 1013.2 |
| 20260906121545 | 75 | 0 | 0.0 | 0.0 | 0.00 | 0.03 | 0.01 | 99 | 1013.2 |
| 20260906120039 | 74 | 0 | 0.0 | 0.0 | 0.00 | 0.03 | 0.01 | 99 | 1013.0 |
| 20260906114539 | 74 | 0 | 0.0 | 0.0 | 0.00 | 0.03 | 0.01 | 99 | 1012.8 |
| 20260906113040 | 74 | 0 | 0.0 | 0.0 | 0.00 | 0.03 | 0.01 | 99 | 1012.5 |
| 20260906111539 | 74 | 0 | 0.0 | 0.0 | 0.00 | 0.03 | 0.01 | 99 | 1012.4 |
| 20260906110044 | 74 | 0 | 0.0 | 0.0 | 0.00 | 0.03 | 0.01 | 99 | 1012.5 |
| 20260906104539 | 74 | 0 | 0.0 | 0.0 | 0.00 | 0.03 | 0.01 | 99 | 1012.3 |
| 20260906103039 | 74 | 0 | 0.0 | 0.0 | 0.00 | 0.03 | 0.01 | 99 | 1012.2 |
| 20260906101540 | 75 | 0 | 0.0 | 0.0 | 0.00 | 0.03 | 0.01 | 99 | 1012.2 |
| 20260906100045 | 75 | 0 | 0.0 | 0.0 | 0.00 | 0.03 | 0.01 | 99 | 1012.3 |
| 20260906094539 | 75 | 0 | 0.0 | 0.0 | 0.00 | 0.03 | 0.01 | 99 | 1012.3 |
| 20260906093049 | 75 | 0 | 0.0 | 0.0 | 0.01 | 0.03 | 0.01 | 99 | 1012.3 |
| 20260906091538 | 75 | 0 | 0.0 | 0.0 | 0.01 | 0.03 | 0.01 | 99 | 1012.3 |
| 20260906090047 | 75 | 0 | 0.0 | 0.0 | 0.01 | 0.03 | 0.01 | 99 | 1012.2 |
| 20260906084542 | 75 | 0 | 0.0 | 0.0 | 0.01 | 0.03 | 0.01 | 99 | 1012.2 |
| 20260906083039 | 75 | 0 | 0.0 | 0.0 | 0.00 | 0.02 | 0.00 | 99 | 1012.2 |
| 20260906081549 | 75 | 0 | 0.0 | 0.0 | 0.00 | 0.02 | 0.00 | 99 | 1012.1 |
| 20260906080040 | 75 | 0 | 0.0 | 0.0 | 0.00 | 0.02 | 0.00 | 99 | 1012.1 |
| 20260906074546 | 75 | 0 | 0.0 | 0.0 | 0.00 | 0.02 | 0.00 | 99 | 1012.1 |
| 20260906073050 | 75 | 0 | 0.0 | 0.0 | 0.00 | 0.02 | 0.00 | 98 | 1012.1 |
| 20260906071548 | 75 | 0 | 0.0 | 0.0 | 0.00 | 0.02 | 0.00 | 99 | 1012.2 |
| 20260906070049 | 75 | 0 | 0.0 | 0.0 | 0.00 | 0.02 | 0.00 | 99 | 1012.1 |
| 20260906064542 | 75 | 0 | 0.0 | 0.0 | 0.00 | 0.02 | 0.00 | 98 | 1012.1 |
| 20260906063040 | 75 | 0 | 0.0 | 0.0 | 0.00 | 0.02 | 0.00 | 98 | 1012.2 |
| 20260906061553 | 75 | 0 | 0.0 | 0.0 | 0.00 | 0.02 | 0.00 | 98 | 1012.0 |
| 20260906060039 | 76 | 0 | 0.0 | 1.0 | 0.00 | 0.02 | 0.00 | 98 | 1012.0 |
| 20260906054546 | 76 | 0 | 0.0 | 2.0 | 0.00 | 0.02 | 0.00 | 98 | 1012.2 |
| 20260906053044 | 76 | 0 | 0.0 | 0.0 | 0.00 | 0.02 | 0.00 | 98 | 1012.1 |
| 20260906051538 | 76 | 0 | 0.0 | 0.0 | 0.00 | 0.02 | 0.00 | 98 | 1011.9 |
| 20260906050050 | 76 | 0 | 0.0 | 1.0 | 0.00 | 0.02 | 0.00 | 98 | 1011.9 |
| 20260906044540 | 76 | 173 | 0.0 | 4.0 | 0.00 | 0.02 | 0.02 | 98 | 1011.9 |
| 20260906043047 | 76 | 0 | 0.0 | 0.0 | 0.00 | 0.02 | 0.02 | 98 | 1011.8 |
| 20260906041539 | 77 | 0 | 0.0 | 0.0 | 0.00 | 0.02 | 0.02 | 98 | 1011.7 |
| 20260906040055 | 76 | 0 | 0.0 | 0.0 | 0.00 | 0.02 | 0.02 | 98 | 1011.5 |
| 20260906034540 | 76 | 0 | 0.0 | 0.0 | 0.00 | 0.02 | 0.02 | 97 | 1011.6 |
| 20260906033039 | 76 | 0 | 0.0 | 0.0 | 0.00 | 0.02 | 0.02 | 97 | 1011.6 |
| 20260906031543 | 77 | 0 | 0.0 | 2.0 | 0.00 | 0.02 | 0.02 | 97 | 1011.7 |
| 20260906030045 | 77 | 0 | 0.0 | 1.0 | 0.00 | 0.02 | 0.02 | 97 | 1011.9 |
| 20260906024540 | 77 | 0 | 0.0 | 2.0 | 0.00 | 0.02 | 0.02 | 97 | 1011.9 |
| 20260906023057 | 77 | 0 | 0.0 | 2.0 | 0.00 | 0.02 | 0.02 | 97 | 1012.0 |
| 20260906021539 | 77 | 0 | 0.0 | 2.0 | 0.00 | 0.02 | 0.02 | 97 | 1011.7 |
| 20260906020044 | 77 | 0 | 0.0 | 2.0 | 0.00 | 0.02 | 0.02 | 96 | 1011.6 |
| 20260906014551 | 77 | 0 | 1.0 | 2.0 | 0.00 | 0.02 | 0.02 | 96 | 1011.4 |
| 20260906013047 | 77 | 18 | 1.0 | 3.0 | 0.00 | 0.02 | 0.02 | 96 | 1011.4 |
| 20260906011551 | 77 | 335 | 0.0 | 1.0 | 0.00 | 0.02 | 0.02 | 96 | 1011.6 |
| 20260906010043 | 78 | 0 | 0.0 | 1.0 | 0.00 | 0.02 | 0.02 | 96 | 1011.6 |
| 20260906004540 | 78 | 350 | 0.0 | 3.0 | 0.01 | 0.02 | 0.02 | 95 | 1011.7 |
| 20260906003038 | 78 | 0 | 0.0 | 2.0 | 0.02 | 0.02 | 0.02 | 95 | 1011.6 |
| 20260906001543 | 78 | 0 | 0.0 | 1.0 | 0.02 | 0.02 | 0.02 | 95 | 1011.6 |
| 20260906000042 | 79 | 0 | 0.0 | 2.0 | 0.02 | 0.02 | 0.02 | 94 | 1011.7 |
| 20260905234551 | 79 | 14 | 0.0 | 3.0 | 0.01 | 0.01 | 0.01 | 94 | 1011.8 |
| 20260905233046 | 80 | 0 | 0.0 | 0.0 | 0.00 | 0.00 | 0.00 | 93 | 1012.0 |
| 20260905231542 | 80 | 0 | 0.0 | 1.0 | 0.00 | 0.00 | 0.00 | 91 | 1012.2 |
| 20260905230043 | 81 | 0 | 0.0 | 1.0 | 0.00 | 0.00 | 0.00 | 89 | 1012.0 |
| 20260905224541 | 81 | 111 | 0.0 | 3.0 | 0.00 | 0.00 | 0.00 | 88 | 1012.4 |
| 20260905223045 | 81 | 0 | 0.0 | 4.0 | 0.00 | 0.00 | 0.00 | 87 | 1012.4 |
| 20260905221542 | 82 | 0 | 1.0 | 4.0 | 0.00 | 0.00 | 0.00 | 85 | 1012.3 |
| 20260905220040 | 83 | 277 | 0.0 | 3.0 | 0.00 | 0.00 | 0.00 | 84 | 1012.5 |
| 20260905214546 | 83 | 0 | 2.0 | 4.0 | 0.00 | 0.00 | 0.00 | 85 | 1012.3 |
| 20260905213042 | 84 | 334 | 2.0 | 5.0 | 0.00 | 0.00 | 0.00 | 83 | 1011.9 |
| 20260905211538 | 85 | 352 | 2.0 | 8.0 | 0.00 | 0.00 | 0.00 | 81 | 1012.1 |
| 20260905210045 | 85 | 227 | 3.0 | 7.0 | 0.00 | 0.00 | 0.00 | 83 | 1012.1 |
| 20260905204542 | 86 | 198 | 4.0 | 9.0 | 0.00 | 0.00 | 0.00 | 82 | 1011.9 |
| 20260905203041 | 84 | 166 | 4.0 | 12.0 | 0.00 | 0.00 | 0.00 | 84 | 1012.2 |
| 20260905201540 | 85 | 242 | 3.0 | 10.0 | 0.00 | 0.00 | 0.00 | 81 | 1012.0 |
| 20260905200052 | 84 | 171 | 2.0 | 10.0 | 0.00 | 0.00 | 0.00 | 85 | 1012.7 |
| 20260905194542 | 83 | 282 | 2.0 | 5.0 | 0.00 | 0.00 | 0.00 | 84 | 1012.8 |
| 20260905193041 | 82 | 209 | 1.0 | 5.0 | 0.00 | 0.00 | 0.00 | 87 | 1012.6 |